Time,TemperatureF,DewpointF,PressureIn,WindDirection,WindDirectionDegrees,WindSpeedMPH,WindSpeedGustMPH,Humidity,HourlyPrecipIn,Conditions,Clouds,dailyrainin,SoftwareType,DateUTC
2013-01-11 00:01:00,42.8,30.7,30.52,ESE,106,0.0,4.0,62,0.00,,,0.00,meteohub,2013-01-11 05:01:00,
2013-01-11 00:03:00,42.8,30.7,30.53,South,183,2.0,3.0,62,0.00,,,0.00,meteohub,2013-01-11 05:03:00,
2013-01-11 00:04:00,42.8,30.7,30.53,ESE,115,0.0,3.0,62,0.00,,,0.00,meteohub,2013-01-11 05:04:00,
2013-01-11 00:09:00,43.0,30.9,30.52,ESE,117,0.0,4.0,62,0.00,,,0.00,meteohub,2013-01-11 05:09:00,
2013-01-11 00:14:00,42.8,30.7,30.52,SE,136,0.0,4.0,62,0.00,,,0.00,meteohub,2013-01-11 05:14:00,
2013-01-11 00:19:00,42.8,30.7,30.52,SSE,154,0.0,4.0,62,0.00,,,0.00,meteohub,2013-01-11 05:19:00,
2013-01-11 00:24:00,42.6,30.6,30.52,SSE,153,0.0,2.0,62,0.00,,,0.00,meteohub,2013-01-11 05:24:00,
2013-01-11 00:29:00,42.6,30.9,30.52,SSE,153,0.0,2.0,63,0.00,,,0.00,meteohub,2013-01-11 05:29:00,
2013-01-11 00:34:00,42.4,31.1,30.52,SSE,153,0.0,1.0,64,0.00,,,0.00,meteohub,2013-01-11 05:34:00,
2013-01-11 00:39:00,42.3,30.9,30.52,SSE,153,0.0,1.0,64,0.00,,,0.00,meteohub,2013-01-11 05:39:00,
2013-01-11 00:44:00,42.1,30.4,30.52,SSE,153,0.0,1.0,63,0.00,,,0.00,meteohub,2013-01-11 05:44:00,
2013-01-11 00:49:00,42.1,31.1,30.52,SSE,153,0.0,2.0,65,0.00,,,0.00,meteohub,2013-01-11 05:49:00,
2013-01-11 00:54:00,41.7,30.7,30.52,SSE,153,0.0,2.0,65,0.00,,,0.00,meteohub,2013-01-11 05:54:00,
2013-01-11 00:59:00,41.7,30.7,30.52,SSE,153,0.0,2.0,65,0.00,,,0.00,meteohub,2013-01-11 05:59:00,
2013-01-11 01:04:00,41.5,30.7,30.52,SSE,153,0.0,1.0,65,0.00,,,0.00,meteohub,2013-01-11 06:04:00,
2013-01-11 01:09:00,41.4,30.6,30.52,SSE,153,0.0,2.0,65,0.00,,,0.00,meteohub,2013-01-11 06:09:00,
2013-01-11 01:14:00,41.4,30.9,30.52,SSE,153,0.0,2.0,66,0.00,,,0.00,meteohub,2013-01-11 06:14:00,
2013-01-11 01:19:00,41.2,30.7,30.52,SSE,153,0.0,2.0,66,0.00,,,0.00,meteohub,2013-01-11 06:19:00,
2013-01-11 01:24:00,41.0,30.9,30.52,SSE,153,0.0,1.0,67,0.00,,,0.00,meteohub,2013-01-11 06:24:00,
2013-01-11 01:29:00,40.8,30.4,30.51,SSE,153,0.0,1.0,66,0.00,,,0.00,meteohub,2013-01-11 06:29:00,
2013-01-11 01:34:00,40.6,30.9,30.51,SSE,153,0.0,1.0,68,0.00,,,0.00,meteohub,2013-01-11 06:34:00,
2013-01-11 01:39:00,40.5,30.4,30.51,South,176,0.0,1.0,67,0.00,,,0.00,meteohub,2013-01-11 06:39:00,
2013-01-11 01:44:00,40.5,31.1,30.51,South,172,0.0,2.0,69,0.00,,,0.00,meteohub,2013-01-11 06:44:00,
2013-01-11 01:49:00,40.1,30.7,30.50,SSE,168,0.0,2.0,69,0.00,,,0.00,meteohub,2013-01-11 06:49:00,
2013-01-11 01:54:00,39.9,30.6,30.50,SSE,168,0.0,2.0,69,0.00,,,0.00,meteohub,2013-01-11 06:54:00,
2013-01-11 01:59:00,39.7,30.7,30.50,SSE,168,0.0,2.0,70,0.00,,,0.00,meteohub,2013-01-11 06:59:00,
2013-01-11 02:04:00,39.6,30.6,30.51,SSE,168,0.0,2.0,70,0.00,,,0.00,meteohub,2013-01-11 07:04:00,
2013-01-11 02:09:00,39.4,30.4,30.51,SSE,168,0.0,1.0,70,0.00,,,0.00,meteohub,2013-01-11 07:09:00,
2013-01-11 02:14:00,39.4,30.4,30.51,SSE,168,0.0,1.0,70,0.00,,,0.00,meteohub,2013-01-11 07:14:00,
2013-01-11 02:19:00,39.2,30.6,30.51,SSE,168,0.0,1.0,71,0.00,,,0.00,meteohub,2013-01-11 07:19:00,
2013-01-11 02:24:00,39.0,30.4,30.51,SSE,168,0.0,1.0,71,0.00,,,0.00,meteohub,2013-01-11 07:24:00,
2013-01-11 02:29:00,39.0,30.7,30.50,SSE,168,1.0,1.0,72,0.00,,,0.00,meteohub,2013-01-11 07:29:00,
2013-01-11 02:34:00,38.8,30.6,30.50,SSE,168,0.0,1.0,72,0.00,,,0.00,meteohub,2013-01-11 07:34:00,
2013-01-11 02:39:00,38.7,30.7,30.49,SSE,168,0.0,1.0,73,0.00,,,0.00,meteohub,2013-01-11 07:39:00,
2013-01-11 02:44:00,38.5,30.6,30.49,SSE,168,0.0,1.0,73,0.00,,,0.00,meteohub,2013-01-11 07:44:00,
2013-01-11 02:49:00,38.3,30.4,30.49,SSE,168,0.0,1.0,73,0.00,,,0.00,meteohub,2013-01-11 07:49:00,
2013-01-11 02:54:00,38.1,30.2,30.49,SSE,168,0.0,1.0,73,0.00,,,0.00,meteohub,2013-01-11 07:54:00,
2013-01-11 02:59:00,37.9,30.0,30.50,SSE,168,0.0,1.0,73,0.00,,,0.00,meteohub,2013-01-11 07:59:00,
2013-01-11 03:04:00,37.9,30.4,30.50,SSE,168,0.0,1.0,74,0.00,,,0.00,meteohub,2013-01-11 08:04:00,
2013-01-11 03:09:00,37.8,30.2,30.49,SSE,168,0.0,1.0,74,0.00,,,0.00,meteohub,2013-01-11 08:09:00,
2013-01-11 03:14:00,37.8,30.6,30.49,SSE,168,0.0,0.0,75,0.00,,,0.00,meteohub,2013-01-11 08:14:00,
2013-01-11 03:19:00,37.8,30.6,30.49,SSE,168,0.0,0.0,75,0.00,,,0.00,meteohub,2013-01-11 08:19:00,
2013-01-11 03:24:00,37.6,30.7,30.49,SSE,168,0.0,0.0,76,0.00,,,0.00,meteohub,2013-01-11 08:24:00,
2013-01-11 03:29:00,37.4,30.6,30.49,SSE,168,0.0,1.0,76,0.00,,,0.00,meteohub,2013-01-11 08:29:00,
2013-01-11 03:34:00,37.4,30.6,30.48,SSE,168,0.0,1.0,76,0.00,,,0.00,meteohub,2013-01-11 08:34:00,
2013-01-11 03:39:00,37.2,30.4,30.49,SSE,168,0.0,1.0,76,0.00,,,0.00,meteohub,2013-01-11 08:39:00,
2013-01-11 03:44:00,37.0,30.2,30.48,SSE,168,0.0,0.0,76,0.00,,,0.00,meteohub,2013-01-11 08:44:00,
2013-01-11 03:49:00,37.0,30.6,30.48,SSE,168,0.0,0.0,77,0.00,,,0.00,meteohub,2013-01-11 08:49:00,
2013-01-11 03:54:00,37.0,30.6,30.48,SSE,168,0.0,0.0,77,0.00,,,0.00,meteohub,2013-01-11 08:54:00,
2013-01-11 03:59:00,36.9,30.4,30.48,SSE,168,0.0,1.0,77,0.00,,,0.00,meteohub,2013-01-11 08:59:00,
2013-01-11 04:04:00,36.9,30.4,30.48,SSE,168,0.0,1.0,77,0.00,,,0.00,meteohub,2013-01-11 09:04:00,
2013-01-11 04:09:00,36.7,30.6,30.47,SSE,168,0.0,1.0,78,0.00,,,0.00,meteohub,2013-01-11 09:09:00,
2013-01-11 04:14:00,36.5,30.4,30.47,SSE,168,0.0,1.0,78,0.00,,,0.00,meteohub,2013-01-11 09:14:00,
2013-01-11 04:19:00,36.5,30.4,30.47,SSE,168,0.0,0.0,78,0.00,,,0.00,meteohub,2013-01-11 09:19:00,
2013-01-11 04:24:00,36.3,30.2,30.47,SSE,168,0.0,0.0,78,0.00,,,0.00,meteohub,2013-01-11 09:24:00,
2013-01-11 04:29:00,36.3,30.4,30.47,SSE,168,0.0,0.0,79,0.00,,,0.00,meteohub,2013-01-11 09:29:00,
2013-01-11 04:34:00,36.3,30.4,30.47,SSE,168,0.0,0.0,79,0.00,,,0.00,meteohub,2013-01-11 09:34:00,
2013-01-11 04:39:00,36.1,30.2,30.47,SSE,168,0.0,0.0,79,0.00,,,0.00,meteohub,2013-01-11 09:39:00,
2013-01-11 04:44:00,36.1,30.2,30.46,SSE,168,0.0,0.0,79,0.00,,,0.00,meteohub,2013-01-11 09:44:00,
2013-01-11 04:49:00,36.1,30.6,30.47,SSE,168,0.0,0.0,80,0.00,,,0.00,meteohub,2013-01-11 09:49:00,
2013-01-11 04:54:00,36.1,30.6,30.47,SSE,168,0.0,0.0,80,0.00,,,0.00,meteohub,2013-01-11 09:54:00,
2013-01-11 04:59:00,36.1,30.6,30.47,SSE,168,0.0,0.0,80,0.00,,,0.00,meteohub,2013-01-11 09:59:00,
2013-01-11 05:04:00,36.3,30.7,30.47,SSE,168,0.0,0.0,80,0.00,,,0.00,meteohub,2013-01-11 10:04:00,
2013-01-11 05:09:00,36.3,31.1,30.46,SSE,168,0.0,0.0,81,0.00,,,0.00,meteohub,2013-01-11 10:09:00,
2013-01-11 05:14:00,36.3,31.1,30.46,SSE,168,0.0,0.0,81,0.00,,,0.00,meteohub,2013-01-11 10:14:00,
2013-01-11 05:19:00,36.5,30.9,30.46,SSE,168,0.0,0.0,80,0.00,,,0.00,meteohub,2013-01-11 10:19:00,
2013-01-11 05:24:00,36.7,31.1,30.45,SSE,168,0.0,0.0,80,0.00,,,0.00,meteohub,2013-01-11 10:24:00,
2013-01-11 05:29:00,36.7,31.1,30.45,SSE,168,0.0,1.0,80,0.00,,,0.00,meteohub,2013-01-11 10:29:00,
2013-01-11 05:34:00,36.9,31.3,30.45,SSE,168,0.0,1.0,80,0.00,,,0.00,meteohub,2013-01-11 10:34:00,
2013-01-11 05:39:00,36.9,31.3,30.46,SSE,168,0.0,0.0,80,0.00,,,0.00,meteohub,2013-01-11 10:39:00,
2013-01-11 05:44:00,36.9,31.3,30.46,SSE,168,0.0,1.0,80,0.00,,,0.00,meteohub,2013-01-11 10:44:00,
2013-01-11 05:49:00,37.0,31.5,30.46,SSE,168,0.0,1.0,80,0.00,,,0.00,meteohub,2013-01-11 10:49:00,
2013-01-11 05:54:00,37.0,31.5,30.46,SSE,168,0.0,1.0,80,0.00,,,0.00,meteohub,2013-01-11 10:54:00,
2013-01-11 05:59:00,36.9,31.3,30.45,SSE,168,0.0,1.0,80,0.00,,,0.00,meteohub,2013-01-11 10:59:00,
2013-01-11 06:04:00,36.9,31.3,30.44,SSE,168,0.0,1.0,80,0.00,,,0.00,meteohub,2013-01-11 11:04:00,
2013-01-11 06:09:00,36.9,31.3,30.45,SSE,168,0.0,1.0,80,0.00,,,0.00,meteohub,2013-01-11 11:09:00,
2013-01-11 06:15:00,36.7,31.1,30.45,SSE,168,0.0,1.0,80,0.00,,,0.00,meteohub,2013-01-11 11:15:00,
2013-01-11 06:20:00,36.5,30.9,30.44,SSE,168,0.0,0.0,80,0.00,,,0.00,meteohub,2013-01-11 11:20:00,
2013-01-11 06:25:00,36.3,30.7,30.45,SSE,168,0.0,0.0,80,0.00,,,0.00,meteohub,2013-01-11 11:25:00,
2013-01-11 06:30:00,36.1,30.6,30.45,SSE,168,0.0,0.0,80,0.00,,,0.00,meteohub,2013-01-11 11:30:00,
2013-01-11 06:35:00,36.1,30.9,30.44,SSE,168,0.0,0.0,81,0.00,,,0.00,meteohub,2013-01-11 11:35:00,
2013-01-11 06:40:00,36.0,30.4,30.43,SSE,168,0.0,0.0,80,0.00,,,0.00,meteohub,2013-01-11 11:40:00,
2013-01-11 06:45:00,35.8,30.2,30.43,SSE,168,0.0,1.0,80,0.00,,,0.00,meteohub,2013-01-11 11:45:00,
2013-01-11 06:50:00,35.8,30.6,30.43,SSE,168,0.0,1.0,81,0.00,,,0.00,meteohub,2013-01-11 11:50:00,
2013-01-11 06:55:00,35.4,30.2,30.43,SSE,168,0.0,1.0,81,0.00,,,0.00,meteohub,2013-01-11 11:55:00,
2013-01-11 07:00:00,35.4,30.6,30.43,SSE,168,0.0,0.0,82,0.00,,,0.00,meteohub,2013-01-11 12:00:00,
2013-01-11 07:07:00,35.4,30.7,30.43,SSE,168,0.0,1.0,83,0.00,,,0.00,meteohub,2013-01-11 12:07:00,
2013-01-11 07:12:00,35.4,30.7,30.43,SSE,168,0.0,1.0,83,0.00,,,0.00,meteohub,2013-01-11 12:12:00,
2013-01-11 07:17:00,35.6,30.9,30.44,SSE,168,0.0,1.0,83,0.00,,,0.00,meteohub,2013-01-11 12:17:00,
2013-01-11 07:22:00,35.8,31.1,30.44,SSE,168,0.0,1.0,83,0.00,,,0.00,meteohub,2013-01-11 12:22:00,
2013-01-11 07:27:00,36.0,31.6,30.44,SSE,168,0.0,1.0,84,0.00,,,0.00,meteohub,2013-01-11 12:27:00,
2013-01-11 07:32:00,36.1,31.8,30.43,SSE,168,0.0,0.0,84,0.00,,,0.00,meteohub,2013-01-11 12:32:00,
2013-01-11 07:37:00,36.3,32.0,30.44,SSE,168,0.0,0.0,84,0.00,,,0.00,meteohub,2013-01-11 12:37:00,
2013-01-11 07:42:00,36.7,32.0,30.43,SSE,168,0.0,0.0,83,0.00,,,0.00,meteohub,2013-01-11 12:42:00,
2013-01-11 07:47:00,36.7,32.0,30.43,SSE,168,0.0,0.0,83,0.00,,,0.00,meteohub,2013-01-11 12:47:00,
2013-01-11 07:52:00,37.0,32.4,30.44,SSE,168,0.0,0.0,83,0.00,,,0.00,meteohub,2013-01-11 12:52:00,
2013-01-11 07:57:00,37.2,32.9,30.43,SSE,168,0.0,0.0,84,0.00,,,0.00,meteohub,2013-01-11 12:57:00,
2013-01-11 08:02:00,37.6,33.3,30.43,SSE,168,0.0,1.0,84,0.00,,,0.00,meteohub,2013-01-11 13:02:00,
2013-01-11 08:07:00,37.9,32.4,30.43,ESE,123,0.0,2.0,80,0.00,,,0.00,meteohub,2013-01-11 13:07:00,
2013-01-11 08:12:00,38.1,32.2,30.43,ESE,123,0.0,2.0,79,0.00,,,0.00,meteohub,2013-01-11 13:12:00,
2013-01-11 08:17:00,38.5,32.2,30.44,ESE,123,0.0,2.0,78,0.00,,,0.00,meteohub,2013-01-11 13:17:00,
2013-01-11 08:22:00,38.7,32.4,30.44,ESE,123,0.0,2.0,78,0.00,,,0.00,meteohub,2013-01-11 13:22:00,
2013-01-11 08:27:00,38.8,32.2,30.43,ESE,123,0.0,1.0,77,0.00,,,0.00,meteohub,2013-01-11 13:27:00,
2013-01-11 08:32:00,39.0,32.4,30.43,ESE,123,0.0,0.0,77,0.00,,,0.00,meteohub,2013-01-11 13:32:00,
2013-01-11 08:37:00,39.4,32.5,30.43,NNE,23,0.0,2.0,76,0.00,,,0.00,meteohub,2013-01-11 13:37:00,
2013-01-11 08:42:00,39.7,32.5,30.42,NNE,27,0.0,2.0,75,0.00,,,0.00,meteohub,2013-01-11 13:42:00,
2013-01-11 08:47:00,39.9,32.4,30.42,East,88,0.0,2.0,74,0.00,,,0.00,meteohub,2013-01-11 13:47:00,
2013-01-11 08:52:00,40.3,32.4,30.43,East,98,0.0,2.0,73,0.00,,,0.00,meteohub,2013-01-11 13:52:00,
2013-01-11 08:57:00,40.5,32.5,30.42,East,98,0.0,2.0,73,0.00,,,0.00,meteohub,2013-01-11 13:57:00,
2013-01-11 09:02:00,40.6,32.7,30.41,East,98,0.0,2.0,73,0.00,,,0.00,meteohub,2013-01-11 14:02:00,
2013-01-11 09:07:00,40.8,32.5,30.42,East,98,0.0,2.0,72,0.00,,,0.00,meteohub,2013-01-11 14:07:00,
2013-01-11 09:12:00,40.8,32.9,30.43,East,98,0.0,1.0,73,0.00,,,0.00,meteohub,2013-01-11 14:12:00,
2013-01-11 09:17:00,41.0,32.7,30.41,East,98,0.0,1.0,72,0.00,,,0.00,meteohub,2013-01-11 14:17:00,
2013-01-11 09:22:00,41.2,33.3,30.42,East,98,0.0,1.0,73,0.00,,,0.00,meteohub,2013-01-11 14:22:00,
2013-01-11 09:27:00,41.4,33.1,30.42,SW,223,0.0,2.0,72,0.00,,,0.00,meteohub,2013-01-11 14:27:00,
2013-01-11 09:32:00,41.5,32.9,30.41,SW,223,0.0,2.0,71,0.00,,,0.00,meteohub,2013-01-11 14:32:00,
2013-01-11 09:37:00,41.5,33.3,30.40,SW,223,0.0,2.0,72,0.00,,,0.00,meteohub,2013-01-11 14:37:00,
2013-01-11 09:42:00,41.7,33.1,30.41,SE,140,1.0,1.0,71,0.00,,,0.00,meteohub,2013-01-11 14:42:00,
2013-01-11 09:47:00,42.1,33.4,30.40,SE,129,1.0,3.0,71,0.00,,,0.00,meteohub,2013-01-11 14:47:00,
2013-01-11 09:52:00,42.4,33.4,30.40,SE,125,0.0,3.0,70,0.00,,,0.00,meteohub,2013-01-11 14:52:00,
2013-01-11 09:57:00,42.6,33.1,30.39,SSE,163,0.0,3.0,69,0.00,,,0.00,meteohub,2013-01-11 14:57:00,
2013-01-11 10:02:00,43.0,33.8,30.40,SSE,161,0.0,4.0,70,0.00,,,0.00,meteohub,2013-01-11 15:02:00,
2013-01-11 10:07:00,43.2,34.0,30.40,ESE,116,0.0,4.0,70,0.00,,,0.00,meteohub,2013-01-11 15:07:00,
2013-01-11 10:12:00,43.3,33.8,30.40,East,90,0.0,5.0,69,0.00,,,0.00,meteohub,2013-01-11 15:12:00,
2013-01-11 10:17:00,43.5,34.3,30.39,East,90,0.0,5.0,70,0.00,,,0.00,meteohub,2013-01-11 15:17:00,
2013-01-11 10:22:00,43.5,33.6,30.40,SSE,162,0.0,4.0,68,0.00,,,0.00,meteohub,2013-01-11 15:22:00,
2013-01-11 10:27:00,43.5,33.6,30.39,SSE,161,1.0,4.0,68,0.00,,,0.00,meteohub,2013-01-11 15:27:00,
2013-01-11 10:32:00,43.7,34.2,30.38,SW,226,1.0,3.0,69,0.00,,,0.00,meteohub,2013-01-11 15:32:00,
2013-01-11 10:37:00,43.9,34.0,30.38,SE,127,1.0,3.0,68,0.00,,,0.00,meteohub,2013-01-11 15:37:00,
2013-01-11 10:42:00,43.9,34.3,30.37,SE,127,0.0,2.0,69,0.00,,,0.00,meteohub,2013-01-11 15:42:00,
2013-01-11 10:47:00,44.1,34.2,30.38,ESE,118,0.0,2.0,68,0.00,,,0.00,meteohub,2013-01-11 15:47:00,
2013-01-11 10:52:00,44.1,34.5,30.37,SSE,161,0.0,2.0,69,0.00,,,0.00,meteohub,2013-01-11 15:52:00,
2013-01-11 10:57:00,44.1,33.4,30.37,SW,227,2.0,3.0,66,0.00,,,0.00,meteohub,2013-01-11 15:57:00,
2013-01-11 11:02:00,44.1,33.1,30.37,ESE,108,2.0,4.0,65,0.00,,,0.00,meteohub,2013-01-11 16:02:00,
2013-01-11 11:07:00,44.1,33.1,30.37,SE,142,1.0,5.0,65,0.00,,,0.00,meteohub,2013-01-11 16:07:00,
2013-01-11 11:12:00,44.1,33.4,30.35,SSE,163,1.0,5.0,66,0.00,,,0.00,meteohub,2013-01-11 16:12:00,
2013-01-11 11:17:00,44.1,33.4,30.35,East,97,2.0,4.0,66,0.00,,,0.00,meteohub,2013-01-11 16:17:00,
2013-01-11 11:22:00,44.1,34.2,30.33,SSE,151,0.0,3.0,68,0.00,,,0.00,meteohub,2013-01-11 16:22:00,
2013-01-11 11:27:00,44.1,34.2,30.35,SSE,153,1.0,3.0,68,0.00,,,0.00,meteohub,2013-01-11 16:27:00,
2013-01-11 11:32:00,44.2,33.6,30.34,SSW,194,0.0,3.0,66,0.00,,,0.00,meteohub,2013-01-11 16:32:00,
2013-01-11 11:37:00,44.2,34.0,30.33,SSW,207,0.0,3.0,67,0.00,,,0.00,meteohub,2013-01-11 16:37:00,
2013-01-11 11:42:00,44.2,33.6,30.33,SSE,153,0.0,3.0,66,0.00,,,0.00,meteohub,2013-01-11 16:42:00,
2013-01-11 11:47:00,44.4,34.5,30.32,SE,133,0.0,3.0,68,0.00,,,0.00,meteohub,2013-01-11 16:47:00,
2013-01-11 11:52:00,44.6,34.0,30.32,East,94,2.0,3.0,66,0.00,,,0.00,meteohub,2013-01-11 16:52:00,
2013-01-11 11:57:00,45.0,34.7,30.31,ESE,104,1.0,4.0,67,0.00,,,0.00,meteohub,2013-01-11 16:57:00,
2013-01-11 12:02:00,45.1,34.5,30.31,East,96,2.0,4.0,66,0.00,,,0.00,meteohub,2013-01-11 17:02:00,
2013-01-11 12:07:00,45.3,34.7,30.31,SE,139,2.0,4.0,66,0.00,,,0.00,meteohub,2013-01-11 17:07:00,
2013-01-11 12:12:00,45.7,34.5,30.30,SSE,149,1.0,4.0,65,0.00,,,0.00,meteohub,2013-01-11 17:12:00,
2013-01-11 12:17:00,45.7,35.1,30.30,South,182,1.0,4.0,66,0.00,,,0.00,meteohub,2013-01-11 17:17:00,
2013-01-11 12:22:00,45.7,35.8,30.29,SW,217,1.0,4.0,68,0.00,,,0.00,meteohub,2013-01-11 17:22:00,
2013-01-11 12:27:00,45.7,35.8,30.29,SSE,167,1.0,5.0,68,0.00,,,0.00,meteohub,2013-01-11 17:27:00,
2013-01-11 12:32:00,45.7,36.1,30.29,SSE,147,1.0,5.0,69,0.00,,,0.00,meteohub,2013-01-11 17:32:00,
2013-01-11 12:37:00,45.7,36.1,30.28,South,180,1.0,5.0,69,0.00,,,0.00,meteohub,2013-01-11 17:37:00,
2013-01-11 12:42:00,45.7,36.1,30.29,SE,139,0.0,4.0,69,0.00,,,0.00,meteohub,2013-01-11 17:42:00,
2013-01-11 12:47:00,45.5,35.6,30.29,SSE,161,2.0,4.0,68,0.00,,,0.00,meteohub,2013-01-11 17:47:00,
2013-01-11 12:52:00,45.5,36.0,30.28,South,176,0.0,4.0,69,0.00,,,0.00,meteohub,2013-01-11 17:52:00,
2013-01-11 12:57:00,45.3,36.5,30.27,ESE,121,0.0,4.0,71,0.00,,,0.00,meteohub,2013-01-11 17:57:00,
2013-01-11 13:02:00,45.3,36.5,30.27,ESE,108,2.0,5.0,71,0.00,,,0.00,meteohub,2013-01-11 18:02:00,
2013-01-11 13:07:00,45.3,36.5,30.27,South,178,3.0,5.0,71,0.00,,,0.00,meteohub,2013-01-11 18:07:00,
2013-01-11 13:13:00,45.3,36.1,30.27,ESE,123,1.0,5.0,70,0.00,,,0.00,meteohub,2013-01-11 18:13:00,
2013-01-11 13:18:00,45.3,36.5,30.26,SE,133,3.0,4.0,71,0.00,,,0.00,meteohub,2013-01-11 18:18:00,
2013-01-11 13:23:00,45.3,36.9,30.25,SSE,150,2.0,4.0,72,0.00,,,0.00,meteohub,2013-01-11 18:23:00,
2013-01-11 13:28:00,45.3,36.9,30.25,SSE,150,0.0,4.0,72,0.00,,,0.00,meteohub,2013-01-11 18:28:00,
2013-01-11 13:33:00,45.3,36.9,30.25,SSE,149,0.0,5.0,72,0.00,,,0.00,meteohub,2013-01-11 18:33:00,
2013-01-11 13:38:00,45.3,37.6,30.25,South,177,1.0,5.0,74,0.00,,,0.00,meteohub,2013-01-11 18:38:00,
2013-01-11 13:43:00,45.5,37.8,30.25,South,178,0.0,4.0,74,0.00,,,0.00,meteohub,2013-01-11 18:43:00,
2013-01-11 13:48:00,45.7,37.9,30.25,South,178,1.0,4.0,74,0.00,,,0.00,meteohub,2013-01-11 18:48:00,
2013-01-11 13:53:00,45.7,37.9,30.25,South,178,0.0,2.0,74,0.00,,,0.00,meteohub,2013-01-11 18:53:00,
2013-01-11 13:58:00,45.7,37.9,30.25,South,171,2.0,3.0,74,0.00,,,0.00,meteohub,2013-01-11 18:58:00,
2013-01-11 14:03:00,45.7,38.3,30.25,SSW,210,0.0,3.0,75,0.00,,,0.00,meteohub,2013-01-11 19:03:00,
2013-01-11 14:08:00,45.5,38.1,30.23,SSE,159,2.0,3.0,75,0.00,,,0.00,meteohub,2013-01-11 19:08:00,
2013-01-11 14:13:00,45.3,38.5,30.23,South,171,2.0,4.0,77,0.00,,,0.00,meteohub,2013-01-11 19:13:00,
2013-01-11 14:18:00,45.1,38.3,30.22,SE,134,3.0,4.0,77,0.00,,,0.00,meteohub,2013-01-11 19:18:00,
2013-01-11 14:23:00,45.0,38.5,30.22,SSE,157,1.0,5.0,78,0.00,,,0.00,meteohub,2013-01-11 19:23:00,
2013-01-11 14:28:00,45.0,38.8,30.22,SW,218,0.0,6.0,79,0.00,,,0.00,meteohub,2013-01-11 19:28:00,
2013-01-11 14:33:00,45.0,38.8,30.23,South,190,0.0,6.0,79,0.00,,,0.00,meteohub,2013-01-11 19:33:00,
2013-01-11 14:38:00,45.0,39.2,30.23,SSE,162,1.0,6.0,80,0.00,,,0.00,meteohub,2013-01-11 19:38:00,
2013-01-11 14:43:00,44.8,39.0,30.23,South,173,0.0,4.0,80,0.00,,,0.00,meteohub,2013-01-11 19:43:00,
2013-01-11 14:48:00,44.8,39.4,30.22,SE,136,2.0,4.0,81,0.00,,,0.00,meteohub,2013-01-11 19:48:00,
2013-01-11 14:53:00,44.8,39.9,30.23,ESE,116,0.0,4.0,83,0.00,,,0.00,meteohub,2013-01-11 19:53:00,
2013-01-11 14:58:00,44.4,39.9,30.22,SW,225,1.0,4.0,84,0.00,,,0.00,meteohub,2013-01-11 19:58:00,
2013-01-11 15:03:00,44.2,40.1,30.22,SSE,161,2.0,4.0,85,0.00,,,0.00,meteohub,2013-01-11 20:03:00,
2013-01-11 15:08:00,44.1,40.1,30.22,SSW,198,0.0,4.0,86,0.00,,,0.00,meteohub,2013-01-11 20:08:00,
2013-01-11 15:13:00,44.1,40.5,30.22,SSW,198,0.0,4.0,87,0.00,,,0.00,meteohub,2013-01-11 20:13:00,
2013-01-11 15:18:00,43.9,40.3,30.22,SSW,202,0.0,4.0,87,0.00,,,0.00,meteohub,2013-01-11 20:18:00,
2013-01-11 15:23:00,43.7,40.5,30.22,SSW,202,0.0,3.0,88,0.00,,,0.00,meteohub,2013-01-11 20:23:00,
2013-01-11 15:28:00,43.5,40.5,30.21,SSW,200,0.0,2.0,89,0.00,,,0.00,meteohub,2013-01-11 20:28:00,
2013-01-11 15:33:00,43.5,40.5,30.21,SSE,167,0.0,2.0,89,0.00,,,0.00,meteohub,2013-01-11 20:33:00,
2013-01-11 15:38:00,43.3,40.6,30.21,SSE,167,0.0,2.0,90,0.00,,,0.00,meteohub,2013-01-11 20:38:00,
2013-01-11 15:43:00,43.3,40.8,30.22,SSE,167,0.0,2.0,91,0.00,,,0.00,meteohub,2013-01-11 20:43:00,
2013-01-11 15:48:00,43.2,40.6,30.21,West,263,0.0,2.0,91,0.00,,,0.00,meteohub,2013-01-11 20:48:00,
2013-01-11 15:53:00,43.2,40.6,30.21,West,263,0.0,2.0,91,0.00,,,0.00,meteohub,2013-01-11 20:53:00,
2013-01-11 15:58:00,43.0,40.5,30.20,WSW,250,0.0,2.0,91,0.00,,,0.00,meteohub,2013-01-11 20:58:00,
2013-01-11 16:03:00,43.0,40.8,30.21,WSW,250,0.0,1.0,92,0.00,,,0.00,meteohub,2013-01-11 21:03:00,
2013-01-11 16:08:00,43.0,40.8,30.20,WSW,250,0.0,1.0,92,0.01,,,0.01,meteohub,2013-01-11 21:08:00,
2013-01-11 16:13:00,43.0,40.8,30.21,WSW,250,0.0,1.0,92,0.01,,,0.01,meteohub,2013-01-11 21:13:00,
2013-01-11 16:18:00,42.8,41.0,30.20,WSW,250,0.0,1.0,93,0.01,,,0.01,meteohub,2013-01-11 21:18:00,
2013-01-11 16:23:00,42.8,40.6,30.20,WSW,250,0.0,1.0,92,0.01,,,0.01,meteohub,2013-01-11 21:23:00,
2013-01-11 16:28:00,42.8,41.0,30.19,WSW,250,0.0,1.0,93,0.01,,,0.01,meteohub,2013-01-11 21:28:00,
2013-01-11 16:33:00,42.6,40.8,30.19,SE,146,0.0,1.0,93,0.01,,,0.01,meteohub,2013-01-11 21:33:00,
2013-01-11 16:38:00,42.6,40.8,30.19,South,178,0.0,2.0,93,0.01,,,0.01,meteohub,2013-01-11 21:38:00,
2013-01-11 16:43:00,42.6,40.8,30.18,South,178,0.0,2.0,93,0.01,,,0.01,meteohub,2013-01-11 21:43:00,
2013-01-11 16:48:00,42.6,40.8,30.18,South,178,0.0,2.0,93,0.02,,,0.02,meteohub,2013-01-11 21:48:00,
2013-01-11 16:53:00,42.6,40.8,30.19,South,178,0.0,2.0,93,0.02,,,0.02,meteohub,2013-01-11 21:53:00,
2013-01-11 16:58:00,42.4,40.6,30.18,South,178,0.0,1.0,93,0.02,,,0.02,meteohub,2013-01-11 21:58:00,
2013-01-11 17:03:00,42.4,40.8,30.18,South,178,0.0,1.0,94,0.02,,,0.02,meteohub,2013-01-11 22:03:00,
2013-01-11 17:08:00,42.4,40.8,30.18,South,178,0.0,2.0,94,0.01,,,0.02,meteohub,2013-01-11 22:08:00,
2013-01-11 17:13:00,42.4,40.8,30.17,South,178,0.0,2.0,94,0.01,,,0.02,meteohub,2013-01-11 22:13:00,
2013-01-11 17:18:00,42.4,40.8,30.17,South,178,0.0,2.0,94,0.01,,,0.02,meteohub,2013-01-11 22:18:00,
2013-01-11 17:23:00,42.4,40.8,30.17,South,178,0.0,0.0,94,0.02,,,0.03,meteohub,2013-01-11 22:23:00,
2013-01-11 17:29:00,42.4,40.8,30.17,South,178,0.0,2.0,94,0.03,,,0.04,meteohub,2013-01-11 22:29:00,
2013-01-11 17:34:00,42.4,40.8,30.17,South,178,0.0,2.0,94,0.04,,,0.05,meteohub,2013-01-11 22:34:00,
2013-01-11 17:38:00,42.4,40.8,30.17,South,178,0.0,2.0,94,0.04,,,0.05,meteohub,2013-01-11 22:38:00,
2013-01-11 17:44:00,42.4,41.2,30.17,South,178,0.0,1.0,95,0.03,,,0.05,meteohub,2013-01-11 22:44:00,
2013-01-11 17:49:00,42.4,41.2,30.17,South,178,0.0,0.0,95,0.03,,,0.05,meteohub,2013-01-11 22:49:00,
2013-01-11 17:54:00,42.4,41.2,30.17,South,178,0.0,0.0,95,0.03,,,0.05,meteohub,2013-01-11 22:54:00,
2013-01-11 17:59:00,42.4,41.2,30.17,South,178,0.0,0.0,95,0.03,,,0.05,meteohub,2013-01-11 22:59:00,
2013-01-11 18:04:00,42.4,41.2,30.17,South,178,0.0,0.0,95,0.03,,,0.05,meteohub,2013-01-11 23:04:00,
2013-01-11 18:09:00,42.4,41.2,30.17,South,178,0.0,0.0,95,0.03,,,0.05,meteohub,2013-01-11 23:09:00,
2013-01-11 18:14:00,42.4,41.2,30.17,South,178,0.0,0.0,95,0.03,,,0.05,meteohub,2013-01-11 23:14:00,
2013-01-11 18:19:00,42.4,41.2,30.17,South,178,0.0,0.0,95,0.03,,,0.05,meteohub,2013-01-11 23:19:00,
2013-01-11 18:24:00,42.4,41.2,30.17,South,178,0.0,0.0,95,0.02,,,0.05,meteohub,2013-01-11 23:24:00,
2013-01-11 18:29:00,42.4,41.2,30.17,South,178,0.0,0.0,95,0.01,,,0.05,meteohub,2013-01-11 23:29:00,
2013-01-11 18:34:00,42.4,41.2,30.17,South,178,0.0,0.0,95,0.00,,,0.05,meteohub,2013-01-11 23:34:00,
2013-01-11 18:39:00,42.4,41.2,30.17,South,178,0.0,0.0,95,0.00,,,0.05,meteohub,2013-01-11 23:39:00,
2013-01-11 18:44:00,42.4,41.2,30.16,South,178,0.0,0.0,95,0.00,,,0.05,meteohub,2013-01-11 23:44:00,
2013-01-11 18:49:00,42.6,41.4,30.16,South,178,0.0,0.0,95,0.00,,,0.05,meteohub,2013-01-11 23:49:00,
2013-01-11 18:54:00,42.6,41.4,30.16,South,178,0.0,0.0,95,0.00,,,0.05,meteohub,2013-01-11 23:54:00,
2013-01-11 18:59:00,42.6,41.4,30.16,South,178,0.0,0.0,95,0.00,,,0.05,meteohub,2013-01-11 23:59:00,
2013-01-11 19:04:00,42.6,41.4,30.16,South,178,0.0,0.0,95,0.00,,,0.05,meteohub,2013-01-12 00:04:00,
2013-01-11 19:09:00,42.6,41.4,30.16,South,178,0.0,0.0,95,0.00,,,0.05,meteohub,2013-01-12 00:09:00,
2013-01-11 19:14:00,42.6,41.4,30.16,South,178,0.0,0.0,95,0.00,,,0.05,meteohub,2013-01-12 00:14:00,
2013-01-11 19:19:00,42.6,41.4,30.16,South,178,0.0,0.0,95,0.00,,,0.05,meteohub,2013-01-12 00:19:00,
2013-01-11 19:24:00,42.6,41.4,30.15,South,178,0.0,0.0,95,0.00,,,0.05,meteohub,2013-01-12 00:24:00,
2013-01-11 19:29:00,42.6,41.4,30.15,South,178,0.0,1.0,95,0.00,,,0.05,meteohub,2013-01-12 00:29:00,
2013-01-11 19:34:00,42.6,41.4,30.14,South,178,0.0,1.0,95,0.00,,,0.05,meteohub,2013-01-12 00:34:00,
2013-01-11 19:39:00,42.8,41.5,30.15,South,178,0.0,1.0,95,0.00,,,0.05,meteohub,2013-01-12 00:39:00,
2013-01-11 19:44:00,42.8,41.5,30.15,South,178,0.0,0.0,95,0.00,,,0.05,meteohub,2013-01-12 00:44:00,
2013-01-11 19:49:00,43.0,41.7,30.14,South,178,0.0,1.0,95,0.00,,,0.05,meteohub,2013-01-12 00:49:00,
2013-01-11 19:54:00,43.0,41.9,30.14,WNW,296,0.0,1.0,96,0.00,,,0.05,meteohub,2013-01-12 00:54:00,
2013-01-11 19:59:00,43.0,41.9,30.14,WNW,296,0.0,2.0,96,0.00,,,0.05,meteohub,2013-01-12 00:59:00,
2013-01-11 20:04:00,43.0,41.9,30.14,WNW,296,0.0,2.0,96,0.00,,,0.05,meteohub,2013-01-12 01:04:00,
2013-01-11 20:09:00,43.0,41.9,30.15,WNW,296,0.0,2.0,96,0.00,,,0.05,meteohub,2013-01-12 01:09:00,
2013-01-11 20:14:00,43.0,41.9,30.14,WNW,296,0.0,1.0,96,0.00,,,0.05,meteohub,2013-01-12 01:14:00,
2013-01-11 20:19:00,43.0,41.9,30.14,WNW,296,0.0,1.0,96,0.00,,,0.05,meteohub,2013-01-12 01:19:00,
2013-01-11 20:24:00,43.2,42.1,30.14,WNW,296,0.0,1.0,96,0.00,,,0.05,meteohub,2013-01-12 01:24:00,
2013-01-11 20:29:00,43.2,42.1,30.14,WNW,296,0.0,1.0,96,0.00,,,0.05,meteohub,2013-01-12 01:29:00,
2013-01-11 20:34:00,43.0,41.9,30.14,WNW,296,0.0,1.0,96,0.00,,,0.05,meteohub,2013-01-12 01:34:00,
2013-01-11 20:39:00,43.0,41.9,30.14,WNW,296,0.0,1.0,96,0.00,,,0.05,meteohub,2013-01-12 01:39:00,
2013-01-11 20:44:00,43.0,41.9,30.14,WNW,296,0.0,0.0,96,0.00,,,0.05,meteohub,2013-01-12 01:44:00,
2013-01-11 20:49:00,43.0,41.9,30.14,WNW,296,0.0,0.0,96,0.00,,,0.05,meteohub,2013-01-12 01:49:00,
2013-01-11 20:54:00,43.0,41.9,30.14,WNW,296,0.0,1.0,96,0.00,,,0.05,meteohub,2013-01-12 01:54:00,
2013-01-11 20:59:00,43.2,42.1,30.14,WNW,296,0.0,1.0,96,0.00,,,0.05,meteohub,2013-01-12 01:59:00,
2013-01-11 21:05:00,43.2,42.1,30.14,WNW,296,0.0,1.0,96,0.00,,,0.05,meteohub,2013-01-12 02:05:00,
2013-01-11 21:10:00,43.0,41.9,30.13,WNW,296,0.0,0.0,96,0.00,,,0.05,meteohub,2013-01-12 02:10:00,
2013-01-11 21:15:00,43.2,42.1,30.14,WNW,296,0.0,0.0,96,0.00,,,0.05,meteohub,2013-01-12 02:15:00,
2013-01-11 21:20:00,43.2,42.1,30.14,WNW,296,0.0,0.0,96,0.00,,,0.05,meteohub,2013-01-12 02:20:00,
2013-01-11 21:25:00,43.2,42.1,30.15,WNW,296,0.0,1.0,96,0.00,,,0.05,meteohub,2013-01-12 02:25:00,
2013-01-11 21:30:00,43.2,42.1,30.15,WNW,296,0.0,1.0,96,0.00,,,0.05,meteohub,2013-01-12 02:30:00,
2013-01-11 21:35:00,43.2,42.1,30.14,WNW,296,0.0,1.0,96,0.00,,,0.05,meteohub,2013-01-12 02:35:00,
2013-01-11 21:40:00,43.2,42.1,30.13,WNW,296,0.0,1.0,96,0.00,,,0.05,meteohub,2013-01-12 02:40:00,
2013-01-11 21:45:00,43.2,42.1,30.13,WNW,296,0.0,0.0,96,0.00,,,0.05,meteohub,2013-01-12 02:45:00,
2013-01-11 21:50:00,43.2,42.1,30.13,WNW,296,0.0,1.0,96,0.00,,,0.05,meteohub,2013-01-12 02:50:00,
2013-01-11 21:55:00,43.0,41.9,30.13,WNW,296,0.0,1.0,96,0.00,,,0.05,meteohub,2013-01-12 02:55:00,
2013-01-11 22:00:00,43.0,41.9,30.14,WNW,296,0.0,1.0,96,0.00,,,0.05,meteohub,2013-01-12 03:00:00,
2013-01-11 22:05:00,43.0,41.9,30.14,WNW,296,0.0,0.0,96,0.00,,,0.05,meteohub,2013-01-12 03:05:00,
2013-01-11 22:10:00,43.0,41.9,30.14,WNW,296,2.0,0.0,96,0.00,,,0.05,meteohub,2013-01-12 03:10:00,
2013-01-11 22:15:00,43.0,41.9,30.13,WNW,282,0.0,2.0,96,0.00,,,0.05,meteohub,2013-01-12 03:15:00,
2013-01-11 22:20:00,43.0,41.9,30.13,WNW,282,0.0,2.0,96,0.00,,,0.05,meteohub,2013-01-12 03:20:00,
2013-01-11 22:25:00,43.0,41.9,30.14,WNW,282,0.0,2.0,96,0.00,,,0.05,meteohub,2013-01-12 03:25:00,
2013-01-11 22:30:00,43.0,41.9,30.13,WNW,282,0.0,2.0,96,0.00,,,0.05,meteohub,2013-01-12 03:30:00,
2013-01-11 22:35:00,43.0,41.9,30.13,WNW,282,0.0,2.0,96,0.00,,,0.05,meteohub,2013-01-12 03:35:00,
2013-01-11 22:40:00,43.0,41.9,30.13,WNW,286,0.0,2.0,96,0.00,,,0.05,meteohub,2013-01-12 03:40:00,
2013-01-11 22:45:00,42.8,41.7,30.13,NW,317,0.0,3.0,96,0.00,,,0.05,meteohub,2013-01-12 03:45:00,
2013-01-11 22:50:00,42.8,41.7,30.13,NW,317,0.0,3.0,96,0.00,,,0.05,meteohub,2013-01-12 03:50:00,
2013-01-11 22:55:00,42.6,41.5,30.13,WNW,288,0.0,3.0,96,0.00,,,0.05,meteohub,2013-01-12 03:55:00,
2013-01-11 23:00:00,42.6,41.5,30.13,NW,319,0.0,3.0,96,0.00,,,0.05,meteohub,2013-01-12 04:00:00,
2013-01-11 23:05:00,42.6,41.5,30.13,NW,309,0.0,3.0,96,0.00,,,0.05,meteohub,2013-01-12 04:05:00,
2013-01-11 23:10:00,42.6,41.5,30.12,NW,309,0.0,3.0,96,0.00,,,0.05,meteohub,2013-01-12 04:10:00,
2013-01-11 23:15:00,42.6,41.5,30.12,NW,309,0.0,3.0,96,0.00,,,0.05,meteohub,2013-01-12 04:15:00,
2013-01-11 23:20:00,42.6,41.5,30.12,NW,315,0.0,3.0,96,0.00,,,0.05,meteohub,2013-01-12 04:20:00,
2013-01-11 23:25:00,42.4,41.4,30.13,WNW,297,1.0,3.0,96,0.00,,,0.05,meteohub,2013-01-12 04:25:00,
2013-01-11 23:30:00,42.4,41.4,30.13,WNW,297,0.0,3.0,96,0.00,,,0.05,meteohub,2013-01-12 04:30:00,
2013-01-11 23:35:00,42.4,41.4,30.13,WNW,300,0.0,3.0,96,0.00,,,0.05,meteohub,2013-01-12 04:35:00,
2013-01-11 23:40:00,42.4,41.4,30.13,WNW,300,1.0,3.0,96,0.00,,,0.05,meteohub,2013-01-12 04:40:00,
2013-01-11 23:45:00,42.4,41.4,30.13,WNW,300,0.0,3.0,96,0.00,,,0.05,meteohub,2013-01-12 04:45:00,
2013-01-11 23:50:00,42.4,41.4,30.13,WNW,300,1.0,1.0,96,0.00,,,0.05,meteohub,2013-01-12 04:50:00,
2013-01-11 23:55:00,42.4,41.4,30.13,NNW,339,2.0,3.0,96,0.00,,,0.05,meteohub,2013-01-12 04:55:00,